Total_Precipitation_Accumulation
1.36 1.40 1.50 1.61 1.61 1.59 1.58 1.55 1.66 1.71 1.76 1.79 1.87 1.97 2.01 2.13 2.42 2.75 2.64 2.63 2.66 2.66 2.65 2.82 2.89 3.03 3.06 2.93 2.93 2.99 3.17 3.42 3.18 2.80 2.69 2.62 2.43 2.18 2.09 1.95 1.81 1.79 1.75
1.16 1.24 1.32 1.46 1.50 1.50 1.53 1.64 1.75 1.77 1.75 1.69 1.78 1.87 1.81 1.94 2.24 2.55 2.70 2.82 2.93 2.87 2.89 3.04 3.03 3.04 3.00 2.89 2.95 2.95 2.98 3.26 3.20 2.90 2.86 2.79 2.60 2.33 2.22 2.14 1.83 1.70 1.73
1.08 1.14 1.21 1.36 1.54 1.64 1.68 1.73 1.84 1.91 1.88 1.86 1.88 1.84 1.98 2.12 2.21 2.37 2.54 2.58 2.69 2.76 2.89 2.95 2.91 3.02 2.92 2.91 2.79 2.77 2.81 2.97 3.28 3.07 2.96 2.98 2.88 2.60 2.44 2.26 2.05 2.03 1.70
1.05 1.21 1.31 1.52 1.73 1.82 1.85 1.90 1.92 1.95 1.93 1.96 1.97 1.98 2.10 2.20 2.16 2.21 2.35 2.45 2.51 2.58 2.71 2.81 2.87 2.89 2.93 3.06 2.91 2.87 3.01 3.13 3.27 3.22 3.10 3.17 3.19 3.00 2.76 2.52 2.35 2.15 1.88
1.25 1.43 1.65 1.84 1.91 1.96 2.03 2.03 2.08 2.09 1.97 2.08 2.14 2.12 2.13 2.05 1.93 2.16 2.29 2.29 2.48 2.52 2.52 2.50 2.59 2.82 2.89 2.93 2.71 2.86 3.07 3.09 3.06 3.07 3.04 3.18 3.23 3.16 2.88 2.58 2.43 2.35 2.13
1.66 1.80 1.87 1.95 2.00 1.95 1.96 1.95 2.09 2.14 2.19 2.31 2.33 2.35 2.28 2.00 2.17 2.19 2.20 2.33 2.46 2.45 2.45 2.39 2.29 2.31 2.40 2.52 2.55 2.58 2.71 2.85 2.95 2.99 2.96 3.03 3.07 3.07 3.03 2.82 2.63 2.48 2.30
1.91 2.08 2.08 2.05 2.05 2.00 2.04 2.05 2.06 2.20 2.33 2.37 2.36 2.39 2.34 2.32 2.28 2.00 1.93 1.95 2.05 2.09 2.08 2.08 1.88 1.79 2.14 2.19 2.35 2.32 2.21 2.25 2.36 2.60 2.70 2.68 2.87 2.99 3.16 2.95 2.81 2.64 2.38
2.07 2.17 2.23 2.26 2.33 2.39 2.48 2.48 2.52 2.58 2.62 2.57 2.51 2.52 2.57 2.50 2.47 2.11 1.99 1.88 1.88 1.86 1.83 1.81 1.85 1.85 1.90 2.09 2.17 2.14 2.04 1.99 2.04 2.05 2.15 2.38 2.61 2.91 3.10 3.09 3.12 2.91 2.57
2.21 2.36 2.43 2.50 2.55 2.58 2.61 2.73 2.89 3.04 3.10 3.02 2.97 3.00 2.97 2.99 2.98 2.57 2.40 2.14 2.04 1.92 1.93 1.98 2.01 1.86 1.92 1.96 2.01 1.98 1.93 1.94 1.99 2.02 2.00 2.15 2.36 2.55 2.88 2.99 2.99 2.91 2.58
2.33 2.49 2.69 2.83 2.89 2.86 2.93 3.12 3.31 3.49 3.53 3.54 3.56 3.55 3.45 3.40 3.35 2.91 2.71 2.43 2.36 2.28 2.30 2.15 2.05 1.85 1.78 1.73 1.75 1.80 1.71 1.70 1.87 1.95 1.94 1.98 2.10 2.30 2.60 2.65 2.68 2.81 2.60
2.54 2.67 2.84 3.00 3.12 3.16 3.28 3.39 3.58 3.74 3.73 3.69 3.65 3.60 3.48 3.38 3.24 2.87 2.69 2.47 2.48 2.49 2.38 2.25 2.09 1.92 1.71 1.65 1.60 1.59 1.63 1.72 1.84 1.92 2.05 2.17 2.29 2.41 2.44 2.45 2.53 2.59 2.61
2.79 2.94 3.04 3.10 2.96 2.92 3.21 3.44 3.68 3.90 3.87 3.80 3.83 3.66 3.49 3.36 3.08 2.84 2.64 2.48 2.55 2.59 2.50 2.37 2.22 2.07 1.80 1.71 1.55 1.53 1.61 1.59 1.67 1.81 1.91 2.04 2.15 2.28 2.42 2.54 2.59 2.53 2.47
2.84 2.90 3.04 3.07 3.06 3.12 3.34 3.53 3.76 3.88 3.81 3.71 3.67 3.56 3.36 3.17 3.02 2.77 2.53 2.43 2.47 2.42 2.51 2.61 2.39 2.20 1.98 1.81 1.77 1.76 1.65 1.53 1.68 1.81 1.78 1.82 1.93 2.11 2.44 2.68 2.80 2.81 2.60
2.51 2.54 2.54 2.66 2.82 3.06 3.37 3.46 3.53 3.57 3.59 3.57 3.45 3.31 3.26 3.24 3.17 2.91 2.58 2.32 2.29 2.32 2.38 2.48 2.36 2.19 1.95 1.81 1.84 1.79 1.65 1.62 1.74 1.82 1.84 1.87 2.00 2.12 2.31 2.50 2.73 2.81 2.67
2.19 2.21 2.30 2.42 2.60 2.82 3.05 3.20 3.15 3.18 3.38 3.28 3.05 2.88 2.79 2.72 2.80 2.70 2.39 2.23 2.17 2.26 2.34 2.40 2.35 2.23 2.06 1.91 1.84 1.86 1.87 1.83 1.75 1.75 1.90 1.96 2.00 1.98 2.04 2.23 2.51 2.64 2.49
1.93 1.95 1.98 2.05 2.24 2.41 2.57 2.68 2.72 2.50 2.56 2.47 2.33 2.19 2.08 2.07 2.07 1.91 1.74 1.69 1.77 1.96 2.06 2.22 2.27 2.19 2.09 2.02 1.97 1.96 1.94 1.87 1.78 1.77 1.81 1.87 1.90 1.93 1.97 2.08 2.25 2.43 2.41
2.05 2.00 1.99 2.01 2.13 2.18 2.20 2.25 2.31 2.21 2.08 2.01 1.85 1.71 1.63 1.61 1.58 1.56 1.58 1.60 1.68 1.74 1.76 1.94 2.00 1.99 1.99 2.03 2.01 1.94 1.87 1.83 1.87 1.82 1.76 1.81 1.88 1.93 1.99 2.08 2.14 2.26 2.36
2.35 2.30 2.17 2.10 2.10 2.03 2.03 2.10 2.22 2.24 2.11 1.87 1.68 1.47 1.35 1.34 1.38 1.51 1.70 1.67 1.70 1.70 1.67 1.78 1.80 1.82 1.89 1.97 2.01 1.98 1.90 1.89 1.93 1.89 1.86 1.90 2.02 2.07 2.05 2.06 2.12 2.15 2.26
2.25 2.23 2.11 2.08 2.10 2.19 2.16 2.14 2.21 2.22 2.27 2.16 1.88 1.64 1.51 1.46 1.49 1.63 1.70 1.60 1.66 1.67 1.67 1.76 1.81 1.83 1.87 1.95 2.00 2.03 2.03 2.04 2.03 2.05 2.04 2.03 2.13 2.22 2.11 2.04 2.12 2.26 2.30
1.97 2.04 1.95 1.92 1.92 2.06 2.11 2.09 2.12 2.25 2.27 2.16 1.96 1.67 1.44 1.32 1.32 1.53 1.64 1.72 1.82 1.85 1.87 1.86 1.92 1.95 1.95 1.97 2.00 2.00 2.05 2.09 2.07 2.08 2.12 2.15 2.20 2.24 2.14 2.12 2.13 2.24 2.24
1.73 1.72 1.72 1.72 1.78 1.91 2.02 2.05 2.01 2.01 2.06 1.99 1.84 1.57 1.36 1.24 1.31 1.45 1.59 1.71 1.77 1.83 1.87 1.90 1.94 1.89 1.86 1.92 1.95 1.95 2.04 2.09 2.09 2.10 2.18 2.22 2.20 2.19 2.14 2.16 2.17 2.21 2.28
1.70 1.68 1.56 1.58 1.74 1.82 1.88 1.94 1.87 1.82 1.82 1.81 1.69 1.44 1.32 1.23 1.32 1.45 1.61 1.67 1.71 1.73 1.73 1.76 1.75 1.73 1.72 1.76 1.82 1.87 1.92 1.95 1.95 1.97 2.07 2.15 2.16 2.14 2.14 2.19 2.24 2.30 2.33
1.49 1.59 1.60 1.63 1.72 1.71 1.73 1.86 1.88 1.86 1.86 1.81 1.64 1.48 1.38 1.40 1.46 1.56 1.66 1.69 1.65 1.63 1.64 1.66 1.64 1.61 1.55 1.58 1.66 1.73 1.83 1.88 1.85 1.84 1.91 1.94 2.00 2.02 2.02 2.02 2.06 2.18 2.26
1.20 1.37 1.43 1.45 1.49 1.57 1.65 1.76 1.84 1.79 1.78 1.80 1.71 1.60 1.56 1.62 1.65 1.67 1.70 1.65 1.58 1.59 1.60 1.57 1.50 1.44 1.39 1.45 1.49 1.46 1.46 1.49 1.52 1.60 1.67 1.71 1.80 1.89 1.91 1.95 2.03 2.10 2.20
1.13 1.29 1.29 1.25 1.25 1.37 1.51 1.59 1.62 1.57 1.52 1.49 1.44 1.39 1.41 1.49 1.57 1.58 1.56 1.52 1.48 1.46 1.40 1.36 1.35 1.32 1.25 1.19 1.20 1.18 1.25 1.23 1.19 1.24 1.37 1.52 1.60 1.75 1.89 1.96 2.06 2.18 2.22
1.08 1.15 1.17 1.13 1.11 1.23 1.43 1.50 1.51 1.52 1.53 1.47 1.41 1.37 1.38 1.42 1.41 1.41 1.42 1.42 1.40 1.37 1.33 1.27 1.22 1.16 1.13 1.06 1.02 1.07 1.08 1.03 1.01 1.09 1.13 1.26 1.44 1.59 1.71 1.79 1.86 2.03 2.14